Ana Sayfa
METAR-TAF:

METAR-TAF

Havaalanları :

Watauga County Hospital Heliport

Boone, Kuzey Carolina, Amerika Birleşik Devletleri

Enlem: 36-12N, Boylam: 081-39W, yükseklik: 959 m

Güncel hava durumu gözlemi

Rapor saat 09:55 UTC de 19 dakika önce yapıldı.
Sakin rüzgar
Sıcaklık 7°C
Nem 100%
Basınç 1009 hPa
Görüş mesafesi: 16.1 km
hafif yağmur

METAR: KTNB 250955Z AUTO 00000KT 10SM -RA 07/07 A2979 RMK AO2 T00650065

Saat: 05:14 (10:14 UTC)


TAF: eksik

4.000'den fazla havaalanı için hava durumu gözlemleri ve tahminleri (METAR ve TAF raporları).

Kullanılabilir istasyonlar harita üzerinde sarı ve kırmızı noktalarla gösterilir.

İstasyonun adını görmek için fareyi noktanın üzerinde gezdirin.

Sonrasında hava gözlem ve tahminlerini görmek için tıklayın.

Haritayı değiştirmek için: yaklaştırmak için siyah artı işaretli yeşil düğmeye ve uzaklaştırmak için de eksi işaretli düğmeye hızla tıklayın; bitişik haritalar için yeşil okları kullanın.


METAR-TAF: